| time (UTC) | temp C | wind direction | speed KPH | gust KPH | rain 1hr cm | rain 24hr cm | rain mn cm | humidity % | barometer mb |
| 20260507073037 | 5 | 315 | 1.6 | 6.4 | 0.00 | 2.51 | 0.03 | 99 | 1008.5 |
| 20260507072516 | 5 | 270 | 1.6 | 4.8 | 0.00 | 2.51 | 0.03 | 99 | 1008.3 |
| 20260507072017 | 5 | 0.0 | 0.0 | 0.00 | 2.51 | 0.03 | 99 | 1008.4 | |
| 20260507071516 | 5 | 0.0 | 0.0 | 0.00 | 2.51 | 0.03 | 99 | 1008.3 | |
| 20260507071016 | 5 | 0.0 | 0.0 | 0.00 | 2.51 | 0.03 | 99 | 1008.1 | |
| 20260507070516 | 5 | 0.0 | 1.6 | 0.00 | 2.51 | 0.03 | 99 | 1007.9 | |
| 20260507070016 | 5 | 158 | 1.6 | 8.0 | 0.00 | 2.51 | 0.03 | 99 | 1007.9 |
| 20260507065516 | 5 | 0.0 | 0.0 | 0.00 | 2.51 | 0.03 | 99 | 1008.0 | |
| 20260507065016 | 5 | 0.0 | 0.0 | 0.00 | 2.51 | 0.03 | 99 | 1007.9 | |
| 20260507064536 | 5 | 0.0 | 3.2 | 0.00 | 2.51 | 0.03 | 99 | 1008.0 | |
| 20260507064016 | 5 | 0.0 | 4.8 | 0.00 | 2.51 | 0.03 | 99 | 1008.0 | |
| 20260507063516 | 5 | 0.0 | 3.2 | 0.00 | 2.51 | 0.03 | 99 | 1008.1 | |
| 20260507063016 | 5 | 0.0 | 0.0 | 0.00 | 2.51 | 0.03 | 99 | 1008.0 | |
| 20260507062516 | 5 | 0.0 | 0.0 | 0.00 | 2.51 | 0.03 | 99 | 1008.0 | |
| 20260507062016 | 5 | 0.0 | 0.0 | 0.00 | 2.51 | 0.03 | 99 | 1008.2 | |
| 20260507061516 | 5 | 0.0 | 0.0 | 0.00 | 2.51 | 0.03 | 99 | 1008.2 | |
| 20260507061016 | 6 | 0.0 | 0.0 | 0.00 | 2.51 | 0.03 | 99 | 1008.2 | |
| 20260507060516 | 6 | 0.0 | 3.2 | 0.00 | 2.51 | 0.03 | 99 | 1008.4 | |
| 20260507060016 | 6 | 0.0 | 3.2 | 0.00 | 2.51 | 0.03 | 99 | 1008.5 | |
| 20260507055536 | 6 | 0.0 | 0.0 | 0.00 | 2.51 | 0.03 | 99 | 1008.5 | |
| 20260507055016 | 6 | 0.0 | 1.6 | 0.00 | 2.51 | 0.03 | 99 | 1008.3 | |
| 20260507054556 | 6 | 0.0 | 1.6 | 0.00 | 2.51 | 0.03 | 99 | 1008.2 | |
| 20260507054016 | 6 | 225 | 1.6 | 4.8 | 0.00 | 2.51 | 0.03 | 99 | 1008.4 |
| 20260507053516 | 6 | 0.0 | 4.8 | 0.00 | 2.51 | 0.03 | 99 | 1008.6 | |
| 20260507053016 | 6 | 0.0 | 3.2 | 0.00 | 2.54 | 0.03 | 99 | 1008.7 | |
| 20260507052516 | 6 | 248 | 1.6 | 3.2 | 0.00 | 2.54 | 0.03 | 99 | 1008.5 |
| 20260507052036 | 6 | 225 | 1.6 | 3.2 | 0.00 | 2.54 | 0.03 | 99 | 1009.0 |
| 20260507051517 | 6 | 225 | 1.6 | 8.0 | 0.00 | 2.54 | 0.03 | 99 | 1009.1 |
| 20260507051036 | 6 | 225 | 1.6 | 3.2 | 0.00 | 2.54 | 0.03 | 99 | 1009.1 |
| 20260507050516 | 5 | 180 | 1.6 | 14.5 | 0.00 | 2.54 | 0.03 | 99 | 1009.0 |
| 20260507050016 | 5 | 293 | 3.2 | 11.3 | 0.03 | 2.54 | 0.03 | 99 | 1009.0 |
| 20260507045516 | 5 | 293 | 1.6 | 6.4 | 0.03 | 2.54 | 0.03 | 99 | 1009.1 |
| 20260507045036 | 5 | 293 | 1.6 | 4.8 | 0.03 | 2.57 | 0.03 | 99 | 1009.0 |
| 20260507044516 | 5 | 225 | 3.2 | 11.3 | 0.03 | 2.57 | 0.03 | 99 | 1008.7 |
| 20260507044016 | 5 | 225 | 1.6 | 8.0 | 0.03 | 2.57 | 0.03 | 99 | 1008.9 |
| 20260507043516 | 5 | 180 | 3.2 | 8.0 | 0.03 | 2.57 | 0.03 | 99 | 1009.0 |
| 20260507043016 | 5 | 0.0 | 4.8 | 0.03 | 2.57 | 0.03 | 99 | 1009.0 | |
| 20260507042516 | 5 | 90 | 1.6 | 4.8 | 0.03 | 2.57 | 0.03 | 99 | 1008.9 |
| 20260507042016 | 5 | 0.0 | 0.0 | 0.03 | 2.57 | 0.03 | 98 | 1008.7 | |
| 20260507041516 | 5 | 0.0 | 3.2 | 0.03 | 2.57 | 0.03 | 98 | 1008.4 | |
| 20260507041016 | 5 | 0.0 | 3.2 | 0.03 | 2.57 | 0.03 | 99 | 1008.6 | |
| 20260507040536 | 5 | 0.0 | 1.6 | 0.03 | 2.57 | 0.03 | 99 | 1008.5 | |
| 20260507040036 | 5 | 0.0 | 1.6 | 0.00 | 2.54 | 2.54 | 99 | 1008.5 | |
| 20260507035516 | 5 | 0.0 | 3.2 | 0.00 | 2.54 | 2.54 | 99 | 1008.5 | |
| 20260507035036 | 5 | 0.0 | 0.0 | 0.00 | 2.54 | 2.54 | 99 | 1008.8 | |
| 20260507034516 | 5 | 0.0 | 3.2 | 0.00 | 2.54 | 2.54 | 99 | 1008.8 | |
| 20260507034016 | 5 | 0.0 | 4.8 | 0.00 | 2.54 | 2.54 | 99 | 1008.8 | |
| 20260507033516 | 5 | 0.0 | 0.0 | 0.00 | 2.54 | 2.54 | 99 | 1008.9 | |
| 20260507033016 | 6 | 90 | 1.6 | 4.8 | 0.00 | 2.54 | 2.54 | 99 | 1008.8 |
| 20260507032536 | 6 | 0.0 | 1.6 | 0.00 | 2.54 | 2.54 | 99 | 1008.8 | |
| 20260507032016 | 6 | 0.0 | 1.6 | 0.00 | 2.54 | 2.54 | 99 | 1008.8 | |
| 20260507031516 | 6 | 0.0 | 3.2 | 0.00 | 2.54 | 2.54 | 99 | 1009.2 | |
| 20260507031016 | 6 | 0.0 | 0.0 | 0.00 | 2.54 | 2.54 | 99 | 1009.1 | |
| 20260507030516 | 6 | 0.0 | 0.0 | 0.00 | 2.54 | 2.54 | 99 | 1009.1 | |
| 20260507030016 | 6 | 0.0 | 1.6 | 0.00 | 2.54 | 2.54 | 99 | 1009.2 | |
| 20260507025516 | 6 | 0.0 | 0.0 | 0.00 | 2.54 | 2.54 | 99 | 1009.3 | |
| 20260507025016 | 6 | 0.0 | 0.0 | 0.03 | 2.54 | 2.54 | 99 | 1009.3 | |
| 20260507024516 | 6 | 0.0 | 3.2 | 0.03 | 2.54 | 2.54 | 99 | 1009.4 | |
| 20260507024016 | 6 | 0.0 | 1.6 | 0.03 | 2.54 | 2.54 | 99 | 1009.2 | |
| 20260507023516 | 6 | 0.0 | 0.0 | 0.03 | 2.54 | 2.54 | 99 | 1009.3 | |
| 20260507023016 | 6 | 0.0 | 0.0 | 0.03 | 2.54 | 2.54 | 99 | 1009.4 | |
| 20260507022516 | 6 | 0.0 | 0.0 | 0.03 | 2.54 | 2.54 | 99 | 1009.5 | |
| 20260507022016 | 6 | 0.0 | 1.6 | 0.05 | 2.54 | 2.54 | 99 | 1009.5 | |
| 20260507021516 | 6 | 0.0 | 3.2 | 0.05 | 2.54 | 2.54 | 99 | 1009.4 | |
| 20260507021056 | 6 | 0.0 | 0.0 | 0.05 | 2.54 | 2.54 | 99 | 1009.5 | |
| 20260507020516 | 6 | 0.0 | 0.0 | 0.05 | 2.54 | 2.54 | 99 | 1009.4 | |
| 20260507020016 | 6 | 0.0 | 0.0 | 0.08 | 2.54 | 2.54 | 99 | 1009.2 | |
| 20260507015516 | 6 | 0.0 | 0.0 | 0.08 | 2.54 | 2.54 | 99 | 1009.0 | |
| 20260507015016 | 6 | 0.0 | 0.0 | 0.05 | 2.51 | 2.51 | 99 | 1009.2 | |
| 20260507014516 | 6 | 0.0 | 0.0 | 0.05 | 2.51 | 2.51 | 99 | 1009.3 | |
| 20260507014036 | 6 | 0.0 | 0.0 | 0.08 | 2.51 | 2.51 | 99 | 1009.2 | |
| 20260507013516 | 6 | 0.0 | 0.0 | 0.08 | 2.51 | 2.51 | 99 | 1009.3 | |
| 20260507013016 | 6 | 0.0 | 0.0 | 0.08 | 2.51 | 2.51 | 99 | 1009.2 | |
| 20260507012516 | 6 | 0.0 | 0.0 | 0.10 | 2.51 | 2.51 | 99 | 1009.1 | |
| 20260507012036 | 6 | 0.0 | 1.6 | 0.08 | 2.49 | 2.49 | 99 | 1008.9 | |
| 20260507011516 | 6 | 0.0 | 1.6 | 0.08 | 2.49 | 2.49 | 99 | 1009.0 | |
| 20260507011016 | 6 | 0.0 | 0.0 | 0.08 | 2.49 | 2.49 | 99 | 1009.0 | |
| 20260507010516 | 6 | 0.0 | 0.0 | 0.08 | 2.49 | 2.49 | 99 | 1008.9 | |
| 20260507010036 | 6 | 0.0 | 0.0 | 0.05 | 2.46 | 2.46 | 99 | 1009.0 | |
| 20260507005536 | 6 | 0.0 | 1.6 | 0.08 | 2.46 | 2.46 | 99 | 1009.0 | |
| 20260507005016 | 6 | 0.0 | 0.0 | 0.10 | 2.46 | 2.46 | 99 | 1008.7 | |
| 20260507004536 | 6 | 0.0 | 0.0 | 0.10 | 2.46 | 2.46 | 99 | 1008.7 | |
| 20260507004016 | 6 | 0.0 | 0.0 | 0.08 | 2.44 | 2.44 | 99 | 1008.6 | |
| 20260507003516 | 6 | 0.0 | 1.6 | 0.08 | 2.44 | 2.44 | 98 | 1008.5 | |
| 20260507003036 | 6 | 0.0 | 1.6 | 0.08 | 2.44 | 2.44 | 98 | 1008.3 | |
| 20260507002516 | 6 | 0.0 | 4.8 | 0.08 | 2.41 | 2.41 | 98 | 1008.1 | |
| 20260507002016 | 6 | 90 | 1.6 | 3.2 | 0.08 | 2.41 | 2.41 | 98 | 1008.2 |
| 20260507001516 | 6 | 0.0 | 1.6 | 0.08 | 2.41 | 2.41 | 98 | 1008.1 | |
| 20260507001016 | 6 | 0.0 | 0.0 | 0.08 | 2.41 | 2.41 | 98 | 1008.0 | |
| 20260507000516 | 6 | 0.0 | 0.0 | 0.08 | 2.41 | 2.41 | 98 | 1007.8 | |
| 20260507000036 | 6 | 0.0 | 0.0 | 0.08 | 2.41 | 2.41 | 98 | 1007.9 | |
| 20260506235516 | 6 | 0.0 | 0.0 | 0.05 | 2.39 | 2.39 | 98 | 1007.6 | |
| 20260506235016 | 6 | 0.0 | 0.0 | 0.05 | 2.36 | 2.36 | 98 | 1007.6 | |
| 20260506234516 | 6 | 0.0 | 3.2 | 0.05 | 2.36 | 2.36 | 98 | 1007.6 | |
| 20260506234016 | 6 | 0.0 | 3.2 | 0.05 | 2.36 | 2.36 | 98 | 1007.5 | |
| 20260506233516 | 6 | 0.0 | 4.8 | 0.05 | 2.36 | 2.36 | 98 | 1007.5 | |
| 20260506233016 | 6 | 0.0 | 1.6 | 0.08 | 2.36 | 2.36 | 98 | 1007.3 | |
| 20260506232016 | 6 | 90 | 3.2 | 6.4 | 0.05 | 2.34 | 2.34 | 98 | 1006.9 |
| 20260506231516 | 6 | 0.0 | 3.2 | 0.05 | 2.34 | 2.34 | 99 | 1006.8 | |
| 20260506231017 | 7 | 113 | 1.6 | 3.2 | 0.05 | 2.34 | 2.34 | 99 | 1006.7 |
| 20260506230516 | 7 | 113 | 1.6 | 3.2 | 0.08 | 2.34 | 2.34 | 99 | 1006.6 |
| 20260506230016 | 7 | 113 | 1.6 | 3.2 | 0.08 | 2.34 | 2.34 | 98 | 1006.5 |
| 20260506225536 | 7 | 0.0 | 3.2 | 0.08 | 2.34 | 2.34 | 99 | 1006.4 | |
| 20260506225016 | 7 | 0.0 | 0.0 | 0.05 | 2.31 | 2.31 | 99 | 1006.5 | |
| 20260506224516 | 7 | 0.0 | 0.0 | 0.05 | 2.31 | 2.31 | 99 | 1006.4 | |
| 20260506224016 | 7 | 0.0 | 0.0 | 0.05 | 2.31 | 2.31 | 99 | 1006.3 | |
| 20260506223516 | 7 | 0.0 | 1.6 | 0.08 | 2.31 | 2.31 | 99 | 1006.2 | |
| 20260506223016 | 7 | 0.0 | 1.6 | 0.05 | 2.29 | 2.29 | 99 | 1006.1 | |
| 20260506222536 | 7 | 113 | 3.2 | 6.4 | 0.05 | 2.29 | 2.29 | 99 | 1006.1 |
| 20260506222015 | 6 | 68 | 1.6 | 6.4 | 0.08 | 2.29 | 2.29 | 99 | 1006.1 |
| 20260506221516 | 6 | 0.0 | 1.6 | 0.08 | 2.29 | 2.29 | 99 | 1006.2 | |
| 20260506221016 | 6 | 0.0 | 1.6 | 0.08 | 2.29 | 2.29 | 99 | 1006.2 | |
| 20260506220536 | 6 | 0.0 | 3.2 | 0.05 | 2.26 | 2.26 | 99 | 1006.3 | |
| 20260506220038 | 6 | 0.0 | 1.6 | 0.05 | 2.26 | 2.26 | 99 | 1006.2 | |
| 20260506215515 | 6 | 0.0 | 1.6 | 0.08 | 2.26 | 2.26 | 98 | 1006.1 | |
| 20260506215016 | 6 | 0.0 | 1.6 | 0.10 | 2.26 | 2.26 | 98 | 1005.9 | |
| 20260506214517 | 6 | 68 | 1.6 | 3.2 | 0.10 | 2.26 | 2.26 | 98 | 1005.6 |
| 20260506214015 | 6 | 68 | 3.2 | 4.8 | 0.13 | 2.26 | 2.26 | 98 | 1005.5 |
| 20260506213536 | 6 | 68 | 1.6 | 4.8 | 0.10 | 2.24 | 2.24 | 98 | 1005.6 |
| 20260506213016 | 7 | 68 | 1.6 | 4.8 | 0.10 | 2.24 | 2.24 | 98 | 1005.5 |
| 20260506212516 | 7 | 68 | 3.2 | 4.8 | 0.10 | 2.24 | 2.24 | 98 | 1005.5 |
| 20260506212016 | 7 | 68 | 3.2 | 6.4 | 0.08 | 2.21 | 2.21 | 98 | 1005.4 |
| 20260506211516 | 7 | 68 | 1.6 | 6.4 | 0.08 | 2.21 | 2.21 | 98 | 1005.4 |
| 20260506211116 | 7 | 68 | 1.6 | 3.2 | 0.08 | 2.21 | 2.21 | 98 | 1005.4 |
| 20260506210516 | 7 | 68 | 1.6 | 3.2 | 0.08 | 2.21 | 2.21 | 98 | 1005.3 |
| 20260506210015 | 7 | 68 | 1.6 | 4.8 | 0.08 | 2.24 | 2.21 | 98 | 1005.3 |
| 20260506205515 | 7 | 0.0 | 1.6 | 0.05 | 2.21 | 2.18 | 98 | 1005.4 | |
| 20260506205016 | 7 | 0.0 | 1.6 | 0.05 | 2.18 | 2.16 | 98 | 1005.4 | |
| 20260506204536 | 7 | 0.0 | 3.2 | 0.05 | 2.18 | 2.16 | 98 | 1005.5 | |
| 20260506204015 | 7 | 68 | 1.6 | 4.8 | 0.05 | 2.16 | 2.13 | 98 | 1005.4 |
| 20260506203515 | 7 | 0.0 | 1.6 | 0.08 | 2.16 | 2.13 | 98 | 1005.4 | |
| 20260506203016 | 7 | 0.0 | 4.8 | 0.10 | 2.16 | 2.13 | 98 | 1005.5 | |
| 20260506202515 | 7 | 0.0 | 1.6 | 0.15 | 2.18 | 2.13 | 98 | 1005.5 | |
| 20260506202016 | 7 | 0.0 | 1.6 | 0.18 | 2.21 | 2.13 | 98 | 1005.5 | |
| 20260506201515 | 7 | 0.0 | 4.8 | 0.20 | 2.41 | 2.13 | 98 | 1005.5 | |
| 20260506201016 | 7 | 0.0 | 3.2 | 0.23 | 2.79 | 2.13 | 98 | 1005.6 | |
| 20260506200515 | 7 | 0.0 | 1.6 | 0.25 | 2.82 | 2.13 | 98 | 1005.6 | |
| 20260506200015 | 7 | 68 | 1.6 | 4.8 | 0.28 | 2.82 | 2.13 | 98 | 1005.5 |
| 20260506195515 | 7 | 0.0 | 3.2 | 0.36 | 2.82 | 2.13 | 98 | 1005.6 | |
| 20260506195015 | 7 | 68 | 3.2 | 6.4 | 0.36 | 2.79 | 2.11 | 98 | 1005.7 |
| 20260506194536 | 7 | 45 | 4.8 | 8.0 | 0.38 | 2.79 | 2.11 | 98 | 1005.7 |
| 20260506194015 | 7 | 45 | 3.2 | 8.0 | 0.38 | 2.77 | 2.08 | 98 | 1005.4 |
| 20260506193556 | 7 | 90 | 1.6 | 4.8 | 0.38 | 2.74 | 2.06 | 97 | 1005.5 |
| 20260506193015 | 8 | 90 | 4.8 | 11.3 | 0.38 | 2.72 | 2.03 | 97 | 1005.3 |
| 20260506192515 | 8 | 68 | 4.8 | 9.7 | 0.33 | 2.67 | 1.98 | 97 | 1005.3 |
| 20260506192016 | 8 | 68 | 4.8 | 8.0 | 0.33 | 2.64 | 1.96 | 97 | 1005.3 |
| 20260506191516 | 8 | 68 | 3.2 | 14.5 | 0.33 | 2.62 | 1.93 | 97 | 1005.3 |
| 20260506191015 | 9 | 90 | 1.6 | 8.0 | 0.30 | 2.59 | 1.91 | 98 | 1005.1 |
| 20260506190518 | 9 | 90 | 1.6 | 4.8 | 0.28 | 2.57 | 1.88 | 97 | 1005.2 |
| 20260506190018 | 9 | 113 | 1.6 | 4.8 | 0.28 | 2.54 | 1.85 | 97 | 1005.3 |
| 20260506185517 | 9 | 113 | 3.2 | 6.4 | 0.20 | 2.46 | 1.78 | 97 | 1005.3 |
| 20260506185017 | 9 | 113 | 6.4 | 11.3 | 0.18 | 2.44 | 1.75 | 97 | 1005.2 |
| 20260506184517 | 10 | 0 | 1.6 | 6.4 | 0.18 | 2.41 | 1.73 | 96 | 1005.4 |
| 20260506184017 | 10 | 0 | 3.2 | 8.0 | 0.18 | 2.39 | 1.70 | 96 | 1005.4 |
| 20260506183517 | 11 | 0 | 3.2 | 11.3 | 0.18 | 2.36 | 1.68 | 97 | 1005.2 |
| 20260506183017 | 11 | 68 | 1.6 | 8.0 | 0.18 | 2.34 | 1.65 | 97 | 1005.3 |
| 20260506182517 | 11 | 68 | 4.8 | 12.9 | 0.20 | 2.34 | 1.65 | 95 | 1005.2 |
| 20260506182017 | 12 | 0 | 1.6 | 6.4 | 0.18 | 2.31 | 1.63 | 95 | 1005.4 |
| 20260506181517 | 12 | 293 | 1.6 | 3.2 | 0.20 | 2.29 | 1.60 | 96 | 1005.5 |
| 20260506181018 | 13 | 293 | 1.6 | 9.7 | 0.23 | 2.29 | 1.60 | 98 | 1005.5 |
| 20260506180517 | 13 | 293 | 3.2 | 11.3 | 0.30 | 2.29 | 1.60 | 98 | 1005.4 |
| 20260506180017 | 13 | 45 | 4.8 | 12.9 | 0.33 | 2.26 | 1.57 | 99 | 1005.4 |
| 20260506175517 | 13 | 45 | 3.2 | 9.7 | 0.38 | 2.26 | 1.57 | 98 | 1005.5 |
| 20260506175017 | 13 | 45 | 3.2 | 11.3 | 0.43 | 2.26 | 1.57 | 99 | 1005.5 |
| 20260506174517 | 13 | 45 | 1.6 | 14.5 | 0.48 | 2.24 | 1.55 | 99 | 1005.4 |
| 20260506174017 | 13 | 338 | 1.6 | 12.9 | 0.53 | 2.21 | 1.52 | 99 | 1005.5 |
| 20260506173517 | 13 | 270 | 3.2 | 14.5 | 0.53 | 2.18 | 1.50 | 98 | 1005.6 |
| 20260506173017 | 13 | 0.0 | 3.2 | 0.53 | 2.16 | 1.47 | 98 | 1005.7 | |
| 20260506172537 | 13 | 45 | 3.2 | 8.0 | 0.51 | 2.13 | 1.45 | 98 | 1005.8 |
| 20260506172037 | 13 | 45 | 4.8 | 14.5 | 0.53 | 2.13 | 1.45 | 97 | 1006.0 |
| 20260506171517 | 13 | 0 | 1.6 | 6.4 | 0.53 | 2.08 | 1.40 | 98 | 1006.4 |
| 20260506171017 | 13 | 315 | 1.6 | 9.7 | 0.53 | 2.06 | 1.37 | 98 | 1006.2 |
| 20260506170517 | 13 | 225 | 3.2 | 14.5 | 0.48 | 1.98 | 1.30 | 98 | 1006.3 |
| 20260506170017 | 13 | 90 | 1.6 | 24.1 | 0.46 | 1.93 | 1.24 | 98 | 1006.4 |
| 20260506165517 | 13 | 225 | 1.6 | 24.1 | 0.43 | 1.88 | 1.19 | 98 | 1006.6 |
| 20260506165015 | 13 | 0.0 | 3.2 | 0.43 | 1.83 | 1.14 | 98 | 1006.6 | |
| 20260506164517 | 13 | 23 | 1.6 | 4.8 | 0.38 | 1.75 | 1.07 | 99 | 1006.5 |
| 20260506164017 | 13 | 23 | 3.2 | 19.3 | 0.33 | 1.68 | 0.99 | 98 | 1006.5 |
| 20260506163517 | 13 | 338 | 3.2 | 19.3 | 0.33 | 1.65 | 0.97 | 98 | 1006.6 |
| 20260506163017 | 13 | 45 | 1.6 | 4.8 | 0.33 | 1.63 | 0.94 | 99 | 1006.7 |
| 20260506162618 | 13 | 0.0 | 3.2 | 0.38 | 1.63 | 0.94 | 99 | 1006.6 | |
| 20260506162057 | 13 | 0.0 | 3.2 | 0.38 | 1.60 | 0.91 | 99 | 1006.5 | |
| 20260506161517 | 13 | 0.0 | 3.2 | 0.36 | 1.55 | 0.86 | 99 | 1006.6 | |
| 20260506161017 | 13 | 45 | 1.6 | 4.8 | 0.36 | 1.52 | 0.84 | 99 | 1006.7 |
| 20260506160517 | 13 | 45 | 1.6 | 6.4 | 0.33 | 1.50 | 0.81 | 99 | 1006.9 |
| 20260506160038 | 13 | 0.0 | 0.0 | 0.33 | 1.47 | 0.79 | 99 | 1006.8 | |
| 20260506155517 | 13 | 0.0 | 0.0 | 0.33 | 1.45 | 0.76 | 99 | 1007.0 | |
| 20260506155017 | 13 | 0.0 | 0.0 | 0.30 | 1.40 | 0.71 | 99 | 1007.0 | |
| 20260506154517 | 13 | 0.0 | 0.0 | 0.30 | 1.37 | 0.69 | 98 | 1007.0 | |
| 20260506154017 | 13 | 0.0 | 1.6 | 0.30 | 1.35 | 0.66 | 99 | 1006.9 | |
| 20260506153517 | 13 | 45 | 1.6 | 4.8 | 0.30 | 1.32 | 0.64 | 98 | 1007.1 |
| 20260506153017 | 13 | 45 | 1.6 | 4.8 | 0.28 | 1.30 | 0.61 | 99 | 1007.1 |
| 20260506152517 | 13 | 45 | 3.2 | 8.0 | 0.25 | 1.24 | 0.56 | 99 | 1007.1 |
| 20260506152017 | 13 | 0.0 | 3.2 | 0.25 | 1.22 | 0.53 | 99 | 1007.3 | |
| 20260506151517 | 13 | 0.0 | 3.2 | 0.25 | 1.19 | 0.51 | 98 | 1007.5 | |
| 20260506151017 | 13 | 248 | 1.6 | 6.4 | 0.23 | 1.17 | 0.48 | 99 | 1007.6 |
| 20260506150517 | 13 | 0.0 | 3.2 | 0.25 | 1.17 | 0.48 | 99 | 1007.6 | |
| 20260506150037 | 13 | 0.0 | 4.8 | 0.23 | 1.14 | 0.46 | 98 | 1007.7 | |
| 20260506145517 | 13 | 0.0 | 0.0 | 0.23 | 1.12 | 0.43 | 98 | 1007.7 | |
| 20260506145017 | 13 | 0.0 | 0.0 | 0.23 | 1.09 | 0.41 | 99 | 1007.8 | |
| 20260506144517 | 13 | 0.0 | 0.0 | 0.23 | 1.07 | 0.38 | 99 | 1007.9 | |
| 20260506144017 | 13 | 0.0 | 0.0 | 0.20 | 1.04 | 0.36 | 99 | 1008.0 | |
| 20260506143517 | 13 | 0.0 | 0.0 | 0.18 | 1.02 | 0.33 | 99 | 1007.9 | |
| 20260506143037 | 13 | 0.0 | 0.0 | 0.20 | 1.02 | 0.33 | 99 | 1007.9 | |
| 20260506142517 | 13 | 0.0 | 0.0 | 0.18 | 0.99 | 0.30 | 99 | 1007.9 | |
| 20260506142017 | 13 | 0.0 | 1.6 | 0.18 | 0.97 | 0.28 | 99 | 1008.1 | |
| 20260506141517 | 13 | 225 | 3.2 | 11.3 | 0.15 | 0.94 | 0.25 | 99 | 1008.1 |
| 20260506141017 | 13 | 0.0 | 1.6 | 0.15 | 0.94 | 0.25 | 99 | 1007.9 | |
| 20260506140517 | 13 | 293 | 1.6 | 6.4 | 0.13 | 0.91 | 0.23 | 99 | 1008.0 |
| 20260506140018 | 13 | 0.0 | 1.6 | 0.15 | 0.91 | 0.23 | 99 | 1007.9 | |
| 20260506135517 | 13 | 315 | 3.2 | 8.0 | 0.13 | 0.89 | 0.20 | 99 | 1007.9 |
| 20260506135017 | 13 | 0.0 | 0.0 | 0.10 | 0.86 | 0.18 | 100 | 1007.9 | |
| 20260506134517 | 13 | 0.0 | 1.6 | 0.08 | 0.84 | 0.15 | 100 | 1007.7 | |
| 20260506134017 | 13 | 0.0 | 3.2 | 0.10 | 0.84 | 0.15 | 100 | 1007.8 | |
| 20260506133517 | 13 | 0 | 1.6 | 3.2 | 0.10 | 0.84 | 0.15 | 100 | 1007.8 |
| 20260506133017 | 13 | 0.0 | 3.2 | 0.08 | 0.81 | 0.13 | 100 | 1007.7 | |
| 20260506132517 | 13 | 0.0 | 3.2 | 0.08 | 0.81 | 0.13 | 100 | 1007.6 | |
| 20260506132017 | 13 | 0.0 | 1.6 | 0.05 | 0.79 | 0.10 | 100 | 1007.7 | |
| 20260506131537 | 13 | 0 | 1.6 | 4.8 | 0.05 | 0.79 | 0.10 | 100 | 1007.6 |
| 20260506131017 | 13 | 23 | 1.6 | 3.2 | 0.05 | 0.79 | 0.10 | 100 | 1007.7 |
| 20260506130537 | 13 | 45 | 1.6 | 4.8 | 0.05 | 0.79 | 0.10 | 100 | 1007.7 |
| 20260506130017 | 13 | 45 | 1.6 | 4.8 | 0.03 | 0.76 | 0.08 | 100 | 1007.9 |
| 20260506125517 | 13 | 0.0 | 0.0 | 0.03 | 0.76 | 0.08 | 100 | 1007.9 | |
| 20260506125037 | 13 | 0.0 | 1.6 | 0.03 | 0.76 | 0.08 | 100 | 1007.9 | |
| 20260506124517 | 13 | 0.0 | 3.2 | 0.03 | 0.76 | 0.08 | 100 | 1008.1 | |
| 20260506124017 | 13 | 0.0 | 6.4 | 0.00 | 0.74 | 0.05 | 100 | 1008.2 | |
| 20260506123517 | 13 | 0.0 | 6.4 | 0.00 | 0.74 | 0.05 | 100 | 1008.1 | |
| 20260506123037 | 13 | 0.0 | 4.8 | 0.00 | 0.74 | 0.05 | 100 | 1008.2 | |
| 20260506122517 | 12 | 0.0 | 1.6 | 0.00 | 0.74 | 0.05 | 100 | 1008.1 | |
| 20260506122017 | 12 | 0.0 | 3.2 | 0.00 | 0.74 | 0.05 | 100 | 1008.1 | |
| 20260506121517 | 12 | 0.0 | 0.0 | 0.00 | 0.74 | 0.05 | 100 | 1008.0 | |
| 20260506121017 | 12 | 0.0 | 1.6 | 0.00 | 0.74 | 0.05 | 100 | 1007.9 | |
| 20260506120537 | 12 | 0.0 | 1.6 | 0.00 | 0.74 | 0.05 | 100 | 1007.6 | |
| 20260506120017 | 12 | 135 | 1.6 | 4.8 | 0.00 | 0.74 | 0.05 | 100 | 1007.7 |
| 20260506115517 | 12 | 0.0 | 1.6 | 0.00 | 0.74 | 0.05 | 100 | 1007.9 | |
| 20260506115057 | 12 | 0.0 | 1.6 | 0.00 | 0.74 | 0.05 | 100 | 1007.8 | |
| 20260506114517 | 12 | 0.0 | 3.2 | 0.00 | 0.74 | 0.05 | 100 | 1007.7 | |
| 20260506114037 | 12 | 0.0 | 3.2 | 0.00 | 0.74 | 0.05 | 100 | 1007.9 | |
| 20260506113537 | 12 | 0.0 | 3.2 | 0.00 | 0.74 | 0.05 | 100 | 1008.0 | |
| 20260506113017 | 12 | 0.0 | 3.2 | 0.00 | 0.74 | 0.05 | 100 | 1007.9 | |
| 20260506112516 | 12 | 0.0 | 1.6 | 0.00 | 0.74 | 0.05 | 100 | 1007.9 | |
| 20260506112017 | 11 | 0.0 | 1.6 | 0.00 | 0.74 | 0.05 | 100 | 1008.0 | |
| 20260506111517 | 11 | 0.0 | 0.0 | 0.00 | 0.74 | 0.05 | 100 | 1008.1 | |
| 20260506111017 | 11 | 0.0 | 3.2 | 0.00 | 0.74 | 0.05 | 100 | 1008.0 | |
| 20260506110517 | 11 | 0.0 | 3.2 | 0.00 | 0.74 | 0.05 | 100 | 1008.1 | |
| 20260506110016 | 11 | 0.0 | 0.0 | 0.00 | 0.74 | 0.05 | 100 | 1007.9 | |
| 20260506105517 | 11 | 0.0 | 0.0 | 0.00 | 0.74 | 0.05 | 100 | 1007.8 | |
| 20260506105016 | 11 | 0.0 | 0.0 | 0.00 | 0.74 | 0.05 | 99 | 1007.7 | |
| 20260506104516 | 11 | 0.0 | 0.0 | 0.00 | 0.74 | 0.05 | 100 | 1007.6 | |
| 20260506104037 | 11 | 0.0 | 1.6 | 0.00 | 0.74 | 0.05 | 100 | 1007.8 | |
| 20260506103516 | 11 | 0.0 | 1.6 | 0.00 | 0.74 | 0.05 | 100 | 1007.8 | |
| 20260506103017 | 11 | 0.0 | 0.0 | 0.00 | 0.74 | 0.05 | 99 | 1007.8 | |
| 20260506102517 | 11 | 0.0 | 0.0 | 0.00 | 0.74 | 0.05 | 99 | 1007.5 | |
| 20260506102016 | 11 | 0.0 | 0.0 | 0.00 | 0.74 | 0.05 | 99 | 1007.8 | |
| 20260506101516 | 11 | 0.0 | 0.0 | 0.00 | 0.74 | 0.05 | 99 | 1007.8 | |
| 20260506101017 | 11 | 0.0 | 0.0 | 0.00 | 0.74 | 0.05 | 99 | 1007.8 | |
| 20260506100516 | 11 | 0.0 | 0.0 | 0.00 | 0.74 | 0.05 | 99 | 1007.7 | |
| 20260506100017 | 11 | 135 | 1.6 | 4.8 | 0.00 | 0.74 | 0.05 | 99 | 1007.6 |
| 20260506095517 | 11 | 0.0 | 1.6 | 0.00 | 0.74 | 0.05 | 99 | 1007.8 | |
| 20260506095016 | 11 | 135 | 1.6 | 3.2 | 0.00 | 0.74 | 0.05 | 99 | 1007.8 |
| 20260506094516 | 10 | 0.0 | 0.0 | 0.00 | 0.74 | 0.05 | 99 | 1007.7 | |
| 20260506094036 | 10 | 0.0 | 1.6 | 0.00 | 0.74 | 0.05 | 99 | 1007.6 | |
| 20260506093517 | 10 | 135 | 3.2 | 4.8 | 0.00 | 0.74 | 0.05 | 99 | 1007.6 |
| 20260506093057 | 10 | 0.0 | 3.2 | 0.00 | 0.74 | 0.05 | 99 | 1007.9 | |
| 20260506092517 | 10 | 0.0 | 0.0 | 0.00 | 0.74 | 0.05 | 99 | 1007.7 | |
| 20260506092016 | 10 | 0.0 | 0.0 | 0.00 | 0.74 | 0.05 | 99 | 1007.8 | |
| 20260506091516 | 10 | 0.0 | 0.0 | 0.00 | 0.74 | 0.05 | 99 | 1007.7 | |
| 20260506091016 | 10 | 0.0 | 0.0 | 0.00 | 0.74 | 0.05 | 99 | 1007.7 | |
| 20260506090516 | 10 | 135 | 1.6 | 4.8 | 0.00 | 0.74 | 0.05 | 99 | 1007.9 |
| 20260506090016 | 10 | 0.0 | 3.2 | 0.00 | 0.74 | 0.05 | 98 | 1007.8 | |
| 20260506085516 | 10 | 0.0 | 0.0 | 0.00 | 0.74 | 0.05 | 98 | 1008.0 | |
| 20260506085016 | 10 | 0.0 | 1.6 | 0.00 | 0.74 | 0.05 | 98 | 1008.1 | |
| 20260506084516 | 10 | 0.0 | 3.2 | 0.00 | 0.74 | 0.05 | 98 | 1008.2 | |
| 20260506084016 | 10 | 0.0 | 3.2 | 0.00 | 0.74 | 0.05 | 98 | 1008.2 | |
| 20260506083516 | 10 | 0.0 | 3.2 | 0.00 | 0.74 | 0.05 | 98 | 1008.2 | |
| 20260506083016 | 11 | 0.0 | 0.0 | 0.00 | 0.74 | 0.05 | 98 | 1008.2 | |
| 20260506082536 | 11 | 0.0 | 0.0 | 0.00 | 0.74 | 0.05 | 98 | 1008.0 | |
| 20260506082016 | 11 | 0.0 | 3.2 | 0.00 | 0.74 | 0.05 | 98 | 1008.4 | |
| 20260506081516 | 11 | 135 | 1.6 | 4.8 | 0.00 | 0.74 | 0.05 | 98 | 1008.5 |
| 20260506081016 | 11 | 0.0 | 4.8 | 0.00 | 0.74 | 0.05 | 98 | 1008.9 | |
| 20260506080516 | 11 | 135 | 1.6 | 4.8 | 0.00 | 0.74 | 0.05 | 98 | 1009.1 |
| 20260506073516 | 11 | 0.0 | 1.6 | 0.00 | 0.74 | 0.05 | 98 | 1009.3 |